Location: Grums
(59.3529°N, 13.1129°E)
Time: 15:39:12
(UTC+01:00)

AO-7 - Visible Passes

Search period start: 09 December 2021 00:00
Search period end: 19 December 2021 00:00
Orbit: 1439 x 1459 km, 101.9° (Epoch: 08 December)

Date Brightness Start Highest point End Pass type
(mag) Time Alt. Az. Time Alt. Az. Time Alt. Az.
09 Dec ? 03:28:30 10° NNE 03:35:51 33° E 03:43:10 10° SSE visible
09 Dec ? 05:21:15 10° NNE 05:29:37 89° WNW 05:38:00 10° SSW visible
09 Dec ? 07:14:15 10° NNE 07:21:43 39° NW 07:29:14 10° WSW visible
09 Dec ? 16:32:39 10° SSW 16:39:49 31° W 16:47:02 10° NNW visible
10 Dec ? 02:29:27 10° NE 02:34:36 17° ENE 02:39:42 10° ESE visible
10 Dec ? 04:21:15 10° NNE 04:29:25 55° ESE 04:37:34 10° S visible
10 Dec ? 06:14:15 10° NNE 06:22:22 60° NW 06:30:29 10° SW visible
10 Dec ? 17:28:40 10° WSW 17:33:54 18° W 17:39:08 10° NW visible
11 Dec ? 03:21:31 10° NNE 03:28:41 31° E 03:35:49 10° SSE visible
11 Dec ? 05:14:11 10° NNE 05:22:35 86° ESE 05:30:58 10° SSW visible
11 Dec ? 07:07:12 10° NNE 07:14:47 41° NW 07:22:22 10° WSW visible
11 Dec ? 16:25:20 10° SSW 16:32:39 34° W 16:40:02 10° NNW visible
12 Dec ? 02:22:39 10° NE 02:27:21 16° ENE 02:32:03 10° ESE visible
12 Dec ? 04:14:12 10° NNE 04:22:18 51° ESE 04:30:23 10° S visible
12 Dec ? 06:07:12 10° NNE 06:15:22 63° NW 06:23:33 10° SW visible
12 Dec ? 08:00:01 10° NNE 08:06:54 31° NNW 08:13:49 10° W visible
12 Dec ? 17:21:05 10° SW 17:26:39 19° W 17:32:17 10° NW visible
13 Dec ? 03:14:32 10° NNE 03:21:31 28° E 03:28:28 10° SE visible
13 Dec ? 05:07:08 10° NNE 05:15:31 82° ESE 05:23:54 10° SSW visible
13 Dec ? 07:00:10 10° NNE 07:07:50 43° NW 07:15:31 10° WSW visible
13 Dec ? 16:18:01 10° SSW 16:25:30 36° W 16:33:02 10° NNW visible
14 Dec ? 02:15:53 10° NE 02:20:06 14° ENE 02:24:18 10° ESE visible
14 Dec ? 04:07:11 10° NNE 04:15:12 48° E 04:23:11 10° S visible
14 Dec ? 06:00:08 10° NNE 06:08:22 67° NW 06:16:36 10° SW visible
14 Dec ? 07:53:00 10° NNE 07:59:59 32° NNW 08:07:00 10° W visible
14 Dec ? 17:13:32 10° SW 17:19:26 21° W 17:25:24 10° NW visible
15 Dec ? 03:07:34 10° NNE 03:14:20 26° E 03:21:05 10° SE visible
15 Dec ? 05:00:05 10° NNE 05:08:28 77° ESE 05:16:50 10° SSW visible
15 Dec ? 06:53:07 10° NNE 07:00:52 45° NW 07:08:38 10° WSW visible
15 Dec ? 16:10:45 10° SSW 16:18:21 39° W 16:26:02 10° NNW visible
15 Dec ? 18:12:16 10° W 18:13:54 11° WNW 18:15:32 10° WNW visible
16 Dec ? 02:09:13 10° NE 02:12:51 13° ENE 02:16:27 10° E visible
16 Dec ? 04:00:09 10° NNE 04:08:05 45° E 04:15:59 10° S visible
16 Dec ? 05:53:05 10° NNE 06:01:22 71° WNW 06:09:38 10° SW visible
16 Dec ? 07:45:59 10° NNE 07:53:04 33° NNW 08:00:11 10° W visible
16 Dec ? 17:06:02 10° SW 17:12:14 23° W 17:18:29 10° NW visible
17 Dec ? 03:00:36 10° NNE 03:07:09 25° E 03:13:40 10° SE visible
17 Dec ? 04:53:02 10° NNE 05:01:24 73° ESE 05:09:46 10° SSW visible
17 Dec ? 06:46:04 10° NNE 06:53:54 48° NW 07:01:45 10° WSW visible
17 Dec ? 16:03:30 10° SSW 16:11:13 42° W 16:19:01 10° NNW visible
17 Dec ? 18:03:51 10° W 18:06:37 12° WNW 18:09:25 10° NW visible
18 Dec ? 02:02:42 10° NE 02:05:35 12° ENE 02:08:27 10° E visible
18 Dec ? 03:53:08 10° NNE 04:00:57 42° E 04:08:46 10° SSE visible
18 Dec ? 05:46:02 10° NNE 05:54:21 75° WNW 06:02:40 10° SW visible
18 Dec ? 07:38:57 10° NNE 07:46:08 34° NW 07:53:21 10° W visible
18 Dec ? 16:58:35 10° SW 17:05:02 24° W 17:11:33 10° NNW visible
